[[{"header":{"parameterUnit":"m.s-1","parameterCategory":1,"la1":30.2991,"la2":30.254,"lo1":-89.0895,"lo2":-89.0444,"dy":0.0017,"dx":0.0017,"nx":28,"ny":28,"refTime":"2024-04-13T09:00:00:Z","depth":0,"parameterNumber":2,"parameterNumberName":"U-component_of_WINDS"},"data":[0,0,0,0,0,0,0,0,0,0,0,0,0,0,0,0,0,0,0,0,0,0,0,0,0,0,0,0,0,0,0,0,0,0,0,0,0,0,0,0,0,0,0,0,0,0,0,0,0,0,0,0,0,0,0,0,0,0,0.4247,0.4248,0,0.4323,0.4324,0.4325,0.4367,0.4367,0.4367,0.4367,0.4444,0.4446,0.4448,0,0,0,0,0,0,0,0,0,0,0,0,0,0.4135,0.4137,0.4247,0.4248,0.4249,0.4323,0.4324,0.4325,0.4367,0.4367,0.4367,0.4367,0.4443,0.4446,0.4448,0,0,0,0,0,0,0,0,0,0,0,0,0,0.4195,0.4138,0.4247,0.4279,0.4282,0.4323,0.4324,0.4326,0.4367,0.4367,0.4367,0.4367,0.4443,0.4445,0.4448,0.4463,0,0,0.4457,0.4458,0,0,0,0,0,0,0,0,0.4191,0.4199,0.4273,0.4277,0.4281,0.4336,0.4313,0.4371,0.4367,0.4335,0.4367,0.4367,0.4408,0.4413,0.4427,0.4466,0.447,0.4457,0.4459,0.446,0.4461,0,0,0,0,0,0,0,0.4187,0.4196,0.4277,0.4274,0.4279,0.4288,0.4297,0.4324,0.4369,0.4337,0.4341,0.4349,0.441,0.4424,0.4429,0.4471,0.4457,0.446,0.4462,0.4463,0.4525,0.4524,0,0,0,0,0,0,0.4178,0.4192,0.4275,0.4279,0.4236,0.429,0.43,0.4318,0.4369,0.4377,0.4349,0.4351,0.4419,0.4426,0.4432,0.4452,0.446,0.4463,0.4465,0.4525,0.4525,0.4524,0,0,0,0,0,0,0.4176,0.4185,0.4272,0.4237,0.4248,0.4292,0.4312,0.4319,0.4334,0.4378,0.4386,0.4356,0.442,0.4428,0.4455,0.4455,0.4464,0.4467,0.4525,0.4525,0.4524,0.4492,0,0,0,0,0,0,0.4172,0.4184,0.419,0.4237,0.425,0.4293,0.4312,0.4321,0.4339,0.4342,0.4386,0.4394,0.4421,0.445,0.4458,0.446,0.4469,0.4525,0.4525,0.4525,0.4493,0.4491,0.4489,0,0,0,0,0,0.4168,0.4178,0.4191,0.42,0.4259,0.4293,0.4301,0.4332,0.4339,0.4345,0.4373,0.4392,0.4454,0.4453,0.4461,0.4464,0.4525,0.4525,0.4525,0.4494,0.4491,0.4489,0,0,0,0,0,0,0.4131,0.4185,0.4199,0.4225,0.4254,0.43,0.4309,0.4328,0.4356,0.4357,0.4394,0.4404,0.4427,0.4448,0.4445,0.448,0.4492,0.4493,0.4466,0.4463,0.4461,0.4455,0.4472,0,0,0,0,0,0.4125,0.4149,0.4195,0.4213,0.4227,0.4265,0.4282,0.4303,0.4335,0.4347,0.4377,0.4407,0.4433,0.4449,0.4476,0.4497,0.4506,0.4503,0.4501,0.4498,0.4499,0.4511,0.451,0.4524,0.4524,0.4524,0,0,0.4115,0.4147,0.416,0.4206,0.4232,0.4255,0.4276,0.4299,0.4317,0.4351,0.4378,0.44,0.4436,0.4459,0.4471,0.4478,0.4497,0.4498,0.4496,0.4498,0.4511,0.4509,0.4508,0.4524,0.4524,0.4524,0,0,0.4107,0.4134,0.4152,0.4177,0.4215,0.4241,0.4245,0.4288,0.4305,0.4332,0.4358,0.4379,0.4423,0.4447,0.4465,0.4465,0.4484,0.4473,0.4461,0.4472,0.4471,0.447,0.447,0.4469,0.4474,0.4474,0.4474,0,0.4089,0.4125,0.4159,0.4181,0.42,0.4232,0.425,0.4272,0.4316,0.4329,0.4336,0.4391,0.4418,0.4447,0.4447,0.4461,0.4466,0.4468,0.4469,0.4468,0.4468,0.4468,0.4467,0.4472,0.4472,0.4472,0.4472,0,0.41,0.4125,0.4135,0.4177,0.4197,0.4217,0.4253,0.4269,0.4288,0.4313,0.434,0.4372,0.4406,0.4414,0.4433,0.4446,0.4449,0.4462,0.4473,0.4464,0.4465,0.4465,0.447,0.447,0.4471,0.4471,0,0,0.4071,0.4132,0.4135,0.4154,0.4198,0.4218,0.4238,0.4271,0.4284,0.4313,0.4331,0.4368,0.438,0.44,0.4422,0.4432,0.4429,0.4443,0.4445,0.4439,0.4444,0.4433,0.4433,0.4441,0.4441,0.4442,0.444,0,0.4069,0.4109,0.4139,0.4167,0.4189,0.422,0.4238,0.4266,0.429,0.4312,0.4337,0.4362,0.4376,0.4389,0.44,0.4427,0.443,0.4427,0.4457,0.4458,0.4447,0.4433,0.4423,0.442,0.4441,0.4441,0.4441,0,0.4073,0.4101,0.4131,0.4172,0.4183,0.4199,0.4231,0.4252,0.4284,0.43,0.4322,0.4345,0.4367,0.4377,0.4408,0.4405,0.4419,0.4434,0.4435,0.4439,0.4449,0.4436,0.442,0.4419,0.4442,0.4442,0.4442,0,0.4048,0.4094,0.4117,0.4133,0.4182,0.4192,0.4212,0.4245,0.4263,0.4291,0.4302,0.4332,0.4348,0.437,0.44,0.4405,0.4427,0.444,0.4441,0.444,0.4444,0.4443,0.4429,0.4454,0.4454,0.4454,0.4454,0,0.4042,0.4059,0.4107,0.4121,0.414,0.4175,0.4193,0.4216,0.4245,0.4264,0.4292,0.4309,0.4347,0.4369,0.4392,0.4413,0.4421,0.4434,0.444,0.4431,0.4429,0.444,0.4441,0.4454,0.4454,0.4454,0.4454,0,0.4017,0.405,0.4078,0.4122,0.4133,0.4145,0.4182,0.4197,0.4222,0.4245,0.4252,0.4291,0.4317,0.4349,0.4386,0.4402,0.4421,0.443,0.441,0.4413,0.4412,0.4411,0.4404,0.4405,0.4429,0.4428,0.4428,0,0.4012,0.4025,0.4071,0.4085,0.4105,0.4129,0.4147,0.4181,0.4198,0.4236,0.4246,0.4275,0.4299,0.434,0.4371,0.4399,0.4408,0.4404,0.4413,0.4403,0.4407,0.4406,0.4407,0.4402,0.4401,0.4401,0.4401,0,0.3997,0.4013,0.4038,0.4069,0.4089,0.4115,0.4142,0.4152,0.4191,0.4209,0.4237,0.4256,0.4293,0.4321,0.4353,0.4373,0.4393,0.4398,0.4399,0.439,0.4377,0.4383,0.4403,0.4397,0.4398,0.4398,0.4398,0.4398,0.3982,0.3995,0.4029,0.4055,0.4079,0.4103,0.4119,0.4146,0.4169,0.4203,0.4221,0.4248,0.4279,0.4324,0.4344,0.4365,0.4372,0.4374,0.4375,0.4375,0.4371,0.4374,0.4371,0.4371,0.4371,0.4371,0.4371,0,0.3968,0.3991,0.4016,0.4052,0.4073,0.409,0.4121,0.4137,0.416,0.4188,0.4212,0.4243,0.4269,0.4302,0.4331,0.4341,0.4351,0.4348,0.4347,0.4351,0.4364,0.4359,0.4339,0.4339,0.4339,0.4339,0.4339,0.4339,0.3964,0.3987,0.4006,0.4041,0.4064,0.409,0.4106,0.4128,0.415,0.4184,0.4206,0.4228,0.4257,0.4288,0.4313,0.4322,0.4331,0.4325,0.4336,0.4347,0.435,0.4353,0.4349,0.4327,0.4327,0.4321,0.4321,0.4321]},{"header":{"parameterUnit":"m.s-1","parameterCategory":1,"la1":30.2991,"la2":30.254,"lo1":-89.0895,"lo2":-89.0444,"dy":0.0017,"dx":0.0017,"nx":28,"ny":28,"refTime":"2024-04-13T09:00:00:Z","depth":0,"parameterNumber":3,"parameterNumberName":"V-component_of_WINDS"},"data":[0,0,0,0,0,0,0,0,0,0,0,0,0,0,0,0,0,0,0,0,0,0,0,0,0,0,0,0,0,0,0,0,0,0,0,0,0,0,0,0,0,0,0,0,0,0,0,0,0,0,0,0,0,0,0,0,0,0,3.6168,3.6168,0,3.6155,3.6155,3.6154,3.6108,3.6106,3.6105,3.6104,3.6092,3.6092,3.6093,0,0,0,0,0,0,0,0,0,0,0,0,0,3.6155,3.6156,3.6168,3.6168,3.6168,3.6155,3.6155,3.6154,3.6108,3.6106,3.6105,3.6104,3.6091,3.6092,3.6093,0,0,0,0,0,0,0,0,0,0,0,0,0,3.6153,3.6156,3.6168,3.6143,3.6141,3.6155,3.6155,3.6154,3.6108,3.6106,3.6105,3.6103,3.6091,3.6092,3.6093,3.6131,0,0,3.6096,3.6096,0,0,0,0,0,0,0,0,3.6153,3.6154,3.6147,3.6145,3.6142,3.6131,3.6145,3.6146,3.6108,3.612,3.6104,3.6103,3.6106,3.6106,3.6107,3.613,3.613,3.6096,3.6097,3.6097,3.6097,0,0,0,0,0,0,0,3.6153,3.6154,3.6163,3.6147,3.6144,3.6133,3.6131,3.6145,3.6122,3.6119,3.6116,3.6115,3.6104,3.6106,3.6106,3.6129,3.6096,3.6097,3.6097,3.6098,3.6183,3.6184,0,0,0,0,0,0,3.6157,3.6154,3.6163,3.6163,3.6144,3.6134,3.6132,3.6136,3.6122,3.6118,3.6116,3.6113,3.6105,3.6105,3.6105,3.6148,3.6097,3.6098,3.6098,3.6181,3.6183,3.6185,0,0,0,0,0,0,3.6157,3.6158,3.6164,3.6158,3.6157,3.6136,3.6141,3.6137,3.6138,3.612,3.6116,3.6122,3.6104,3.6104,3.6125,3.6147,3.6098,3.6099,3.6179,3.6182,3.6184,3.6234,0,0,0,0,0,0,3.6157,3.6159,3.6172,3.6158,3.6158,3.6183,3.6143,3.6138,3.614,3.6135,3.6124,3.612,3.6103,3.6123,3.6126,3.6148,3.61,3.6177,3.618,3.6183,3.6231,3.6238,3.6245,0,0,0,0,0,3.6156,3.6188,3.6173,3.6175,3.6175,3.6185,3.6184,3.6163,3.6142,3.6156,3.6144,3.6121,3.6144,3.6126,3.6128,3.6151,3.6175,3.6179,3.6183,3.6227,3.6237,3.6245,0,0,0,0,0,0,3.6205,3.6185,3.6169,3.6197,3.6193,3.6177,3.6193,3.6174,3.6176,3.6171,3.6145,3.6143,3.6167,3.6161,3.6141,3.6186,3.6156,3.616,3.6189,3.6198,3.6205,3.6206,3.6101,0,0,0,0,0,3.6219,3.6229,3.6211,3.6237,3.6235,3.6215,3.6218,3.6202,3.6197,3.6195,3.6185,3.6181,3.6188,3.6193,3.6198,3.623,3.6226,3.6246,3.6254,3.6259,3.6263,3.628,3.6288,3.6197,3.6197,3.6197,0,0,3.6248,3.6238,3.6246,3.6246,3.6241,3.6252,3.6214,3.6227,3.6234,3.6197,3.6216,3.6208,3.6202,3.6229,3.624,3.6224,3.6288,3.6264,3.6269,3.627,3.6284,3.6293,3.6301,3.62,3.6199,3.6199,0,0,3.6306,3.63,3.632,3.6316,3.6309,3.6295,3.63,3.6287,3.628,3.6299,3.6271,3.628,3.6292,3.6289,3.6289,3.6346,3.6324,3.6348,3.6385,3.6401,3.6408,3.6415,3.6435,3.6442,3.6352,3.6352,3.6352,0,3.6343,3.6357,3.6334,3.6348,3.6349,3.6316,3.6336,3.6334,3.6329,3.633,3.6313,3.6327,3.6321,3.6346,3.6359,3.6361,3.6366,3.6349,3.6409,3.6415,3.6421,3.6439,3.6447,3.6355,3.6355,3.6355,3.6354,0,3.6403,3.6413,3.6431,3.6426,3.6429,3.6447,3.6426,3.6432,3.6416,3.6404,3.6423,3.6414,3.6417,3.6421,3.6406,3.6444,3.6435,3.6414,3.6383,3.6433,3.645,3.6457,3.6359,3.6358,3.6357,3.6357,0,0,3.6491,3.6473,3.648,3.6477,3.6467,3.6474,3.6491,3.6493,3.6498,3.6496,3.6509,3.652,3.65,3.65,3.6484,3.6498,3.6543,3.6475,3.6475,3.6488,3.6585,3.66,3.6609,3.6529,3.6531,3.6532,3.6585,0,3.6545,3.6571,3.655,3.658,3.659,3.6558,3.6572,3.6568,3.6557,3.6564,3.6552,3.656,3.6534,3.6534,3.6547,3.6535,3.6562,3.6531,3.6541,3.6542,3.6543,3.6618,3.6634,3.6685,3.6592,3.6593,3.6594,0,3.6612,3.6613,3.6643,3.6631,3.6634,3.6647,3.6647,3.6653,3.6648,3.6639,3.6639,3.6619,3.6634,3.6605,3.6625,3.6604,3.6607,3.6602,3.6604,3.6603,3.657,3.6619,3.6701,3.6708,3.6604,3.6603,3.6603,0,3.6673,3.6681,3.67,3.6699,3.6685,3.6695,3.6689,3.6682,3.6684,3.6685,3.6686,3.6689,3.669,3.6692,3.6674,3.6654,3.6697,3.6665,3.669,3.6691,3.67,3.6699,3.6783,3.6703,3.6703,3.6703,3.6703,0,3.6736,3.6755,3.6727,3.6739,3.676,3.6736,3.6758,3.675,3.6744,3.6753,3.6727,3.6737,3.6712,3.6719,3.6705,3.6724,3.6725,3.6718,3.6714,3.672,3.6721,3.6722,3.6717,3.6705,3.6704,3.6704,3.6704,0,3.6806,3.6788,3.6807,3.6792,3.6789,3.6805,3.6792,3.6803,3.6791,3.6804,3.6805,3.6786,3.6794,3.6775,3.678,3.677,3.6798,3.6788,3.6799,3.6796,3.6822,3.6819,3.6908,3.6918,3.6832,3.6833,3.6834,0,3.6847,3.6862,3.6848,3.6852,3.6848,3.6856,3.6858,3.6836,3.6839,3.6834,3.6845,3.685,3.6853,3.6866,3.6853,3.6856,3.6846,3.6877,3.6847,3.6852,3.6846,3.6845,3.6847,3.6883,3.6884,3.6885,3.6886,0,3.6922,3.6912,3.6916,3.6917,3.692,3.692,3.6918,3.6923,3.6899,3.6904,3.6911,3.6913,3.6918,3.6923,3.6924,3.6919,3.6899,3.6896,3.6901,3.6908,3.6913,3.691,3.6816,3.6894,3.6893,3.6892,3.6892,3.6891,3.6978,3.6989,3.6981,3.6987,3.6983,3.6982,3.6991,3.6979,3.6985,3.6986,3.6973,3.6982,3.6976,3.6975,3.6972,3.698,3.6966,3.6974,3.6976,3.6978,3.6982,3.6913,3.698,3.6979,3.6979,3.6979,3.6979,0,3.7051,3.7044,3.7049,3.7047,3.7051,3.7031,3.7028,3.7033,3.7042,3.7038,3.7041,3.7049,3.7054,3.7041,3.7045,3.7053,3.7044,3.7055,3.7054,3.7053,3.6995,3.6989,3.7062,3.7062,3.7062,3.7062,3.7062,3.7062,3.7089,3.7106,3.7096,3.7112,3.7105,3.7114,3.7114,3.7112,3.7109,3.7119,3.7123,3.7114,3.7107,3.7109,3.7113,3.7109,3.7112,3.7126,3.7119,3.7065,3.7057,3.7049,3.7044,3.7127,3.7127,3.7176,3.7176,3.7176]}]]